Погода в Халлсе-Гапе

Австралия     37°08′09″S   142°31′13″E
темп.,
°C
ветер,
м/с
пор.,
м/с
влажн.,
%
обл.,
%
осадки,
мм/ч
давл.,
гПа
погр.,
м
24 июля, сб
сб2401:00+5ссз2798100 0.0 1003440
04:00+5с3139833 0.1 999661
07:00+5ссз41496100 0.3 9981058
10:00+5сз41297100 1.9 998960
13:00+7зсз41292100 0.7 9971429
16:00+7сз51690100 1.8 9951749
19:00+4зсз41395100 4.4 9961217
22:00+3зсз5148990 4.4 9981341
25 июля, вс
вс2501:00+1з31199100 1.3 1001874
04:00+2з4169799 2.5 10031547
07:00+2з3149542 0.2 10051315
10:00+3з41496100 0.3 10071355
13:00+5з51495100 0.1 10071376
16:00+6зсз31195100 0.8 10051347
19:00+8з61696100 5.6 10061445
22:00+8з31197100 6.0 10081035
26 июля, пн
пн2601:00+7зсз31196100 0.2 10091013
04:00+8зсз3129799 0.3 10101077
07:00+8зсз31295100 0.4 10111237
10:00+9сз31198100 0.6 10121035
13:00+10сз41195100 0.7 10101160
16:00+10зсз4119585 1.7 10101046
19:00+9сз31196100 0.3 1012873
22:00+9сз31197100 0.3 1012781
27 июля, вт
вт2701:00+7ссз269824 0.0 1012238
04:00+5с259918 0.0 1011116
07:00+4ссв29987 0.0 1010208
10:00+8с31483100 0.0 1009573
13:00+13с5156198 0.0 10041288
16:00+13с6175991 0.0 10001783
19:00+13с71852100 0.0 9991859
22:00+11ссз7186998 0.2 9981551
28 июля, ср
ср2801:00+10ссз61688100 0.1 9951420
04:00+10сз6189464 2.1 9941675
07:00+6зсз61594100 1.3 9961429
10:00+6зсз6159499 2.6 9981606
13:00+4зсз4179670 4.7 10001586
16:00+5з7179185 6.1 10011896
19:00+3з41494100 0.9 10051266
22:00+3з4149498 1.2 10081280